| time (UTC) | temp F | wind direction | speed MPH | gust MPH | rain 1hr in | rain 24hr in | rain mn in | humidity % | barometer mb |
| 20260507110027 | 49 | 319 | 3.0 | 6.0 | 0.03 | 0.40 | 0.26 | 95 | 1007.6 |
| 20260507104508 | 49 | 338 | 2.0 | 8.0 | 0.11 | 0.40 | 0.26 | 95 | 1007.2 |
| 20260507103014 | 49 | 266 | 3.0 | 9.0 | 0.15 | 0.39 | 0.25 | 95 | 1007.2 |
| 20260507101522 | 50 | 300 | 2.0 | 7.0 | 0.17 | 0.38 | 0.24 | 95 | 1006.9 |
| 20260507100032 | 51 | 334 | 4.0 | 9.0 | 0.20 | 0.37 | 0.23 | 95 | 1006.3 |
| 20260507094506 | 52 | 8 | 3.0 | 5.0 | 0.15 | 0.29 | 0.15 | 96 | 1006.4 |
| 20260507093012 | 52 | 287 | 2.0 | 6.0 | 0.10 | 0.24 | 0.10 | 95 | 1006.3 |
| 20260507091519 | 54 | 242 | 3.0 | 6.0 | 0.07 | 0.21 | 0.07 | 95 | 1006.7 |
| 20260507090023 | 55 | 217 | 3.0 | 6.0 | 0.03 | 0.17 | 0.03 | 95 | 1007.1 |
| 20260507084505 | 55 | 285 | 1.0 | 4.0 | 0.00 | 0.14 | 0.00 | 96 | 1006.4 |
| 20260507083008 | 55 | 224 | 2.0 | 4.0 | 0.00 | 0.14 | 0.00 | 96 | 1005.7 |
| 20260507081513 | 55 | 245 | 2.0 | 6.0 | 0.00 | 0.14 | 0.00 | 96 | 1005.6 |
| 20260507080020 | 56 | 248 | 1.0 | 6.0 | 0.00 | 0.14 | 0.00 | 96 | 1005.7 |
| 20260507074524 | 55 | 255 | 1.0 | 5.0 | 0.00 | 0.14 | 0.00 | 96 | 1006.0 |
| 20260507073030 | 55 | 240 | 3.0 | 7.0 | 0.00 | 0.14 | 0.00 | 96 | 1006.0 |
| 20260507071516 | 55 | 223 | 3.0 | 9.0 | 0.00 | 0.14 | 0.00 | 95 | 1006.4 |
| 20260507070016 | 55 | 247 | 3.0 | 8.0 | 0.00 | 0.14 | 0.00 | 95 | 1006.0 |
| 20260507064531 | 55 | 226 | 2.0 | 9.0 | 0.00 | 0.14 | 0.00 | 95 | 1006.3 |
| 20260507063026 | 55 | 174 | 2.0 | 7.0 | 0.00 | 0.14 | 0.00 | 95 | 1006.4 |
| 20260507061529 | 56 | 221 | 2.0 | 11.0 | 0.00 | 0.14 | 0.00 | 95 | 1006.3 |
| 20260507060012 | 56 | 279 | 3.0 | 11.0 | 0.00 | 0.14 | 0.00 | 95 | 1006.2 |
| 20260507054516 | 56 | 188 | 2.0 | 13.0 | 0.00 | 0.14 | 0.00 | 95 | 1006.5 |
| 20260507053024 | 56 | 240 | 3.0 | 17.0 | 0.00 | 0.14 | 0.00 | 95 | 1006.9 |
| 20260507051524 | 56 | 259 | 7.0 | 12.0 | 0.00 | 0.14 | 0.00 | 95 | 1007.1 |
| 20260507050038 | 57 | 218 | 4.0 | 10.0 | 0.00 | 0.14 | 0.00 | 95 | 1007.0 |
| 20260507044516 | 57 | 243 | 4.0 | 13.0 | 0.00 | 0.14 | 0.00 | 95 | 1007.1 |
| 20260507043022 | 57 | 228 | 4.0 | 12.0 | 0.00 | 0.14 | 0.00 | 95 | 1007.2 |
| 20260507041526 | 57 | 208 | 4.0 | 12.0 | 0.00 | 0.14 | 0.00 | 95 | 1007.6 |
| 20260507040029 | 57 | 239 | 4.0 | 14.0 | 0.00 | 0.14 | 0.00 | 95 | 1007.4 |
| 20260507034529 | 57 | 242 | 6.0 | 15.0 | 0.00 | 0.14 | 0.14 | 95 | 1007.7 |
| 20260507033020 | 57 | 136 | 5.0 | 20.0 | 0.00 | 0.14 | 0.14 | 95 | 1007.3 |
| 20260507031521 | 57 | 272 | 5.0 | 14.0 | 0.00 | 0.14 | 0.14 | 95 | 1007.0 |
| 20260507030029 | 57 | 154 | 4.0 | 18.0 | 0.00 | 0.14 | 0.14 | 95 | 1007.3 |
| 20260507024515 | 57 | 120 | 5.0 | 14.0 | 0.00 | 0.14 | 0.14 | 95 | 1007.7 |
| 20260507023015 | 57 | 246 | 7.0 | 18.0 | 0.00 | 0.14 | 0.14 | 95 | 1007.9 |
| 20260507021516 | 57 | 227 | 4.0 | 14.0 | 0.00 | 0.14 | 0.14 | 94 | 1008.1 |
| 20260507020005 | 57 | 232 | 7.0 | 14.0 | 0.01 | 0.14 | 0.14 | 94 | 1008.3 |
| 20260507014512 | 57 | 131 | 5.0 | 21.0 | 0.03 | 0.14 | 0.14 | 94 | 1008.5 |
| 20260507013015 | 57 | 238 | 5.0 | 18.0 | 0.05 | 0.14 | 0.14 | 94 | 1008.4 |
| 20260507011517 | 57 | 252 | 5.0 | 13.0 | 0.06 | 0.14 | 0.14 | 94 | 1008.6 |
| 20260507010023 | 57 | 240 | 6.0 | 18.0 | 0.06 | 0.13 | 0.13 | 94 | 1008.7 |
| 20260507004504 | 57 | 179 | 6.0 | 21.0 | 0.06 | 0.11 | 0.11 | 94 | 1008.6 |
| 20260507003008 | 57 | 249 | 7.0 | 16.0 | 0.06 | 0.09 | 0.09 | 94 | 1008.5 |
| 20260507001516 | 57 | 251 | 5.0 | 22.0 | 0.07 | 0.08 | 0.08 | 93 | 1008.6 |
| 20260507000020 | 58 | 200 | 5.0 | 24.0 | 0.07 | 0.07 | 0.07 | 93 | 1008.7 |
| 20260506234521 | 58 | 221 | 7.0 | 23.0 | 0.05 | 0.05 | 0.05 | 92 | 1009.1 |
| 20260506233023 | 59 | 179 | 5.0 | 22.0 | 0.03 | 0.03 | 0.03 | 91 | 1009.0 |
| 20260506231511 | 60 | 204 | 8.0 | 26.0 | 0.01 | 0.01 | 0.01 | 88 | 1009.2 |
| 20260506230024 | 61 | 246 | 8.0 | 19.0 | 0.00 | 0.00 | 0.00 | 83 | 1009.3 |
| 20260506224524 | 62 | 264 | 9.0 | 27.0 | 0.00 | 0.00 | 0.00 | 82 | 1009.1 |
| 20260506223022 | 61 | 248 | 7.0 | 20.0 | 0.00 | 0.00 | 0.00 | 80 | 1009.1 |
| 20260506221526 | 61 | 221 | 7.0 | 19.0 | 0.00 | 0.00 | 0.00 | 79 | 1009.3 |
| 20260506220017 | 62 | 205 | 7.0 | 17.0 | 0.00 | 0.00 | 0.00 | 79 | 1009.5 |
| 20260506214519 | 62 | 237 | 7.0 | 18.0 | 0.00 | 0.00 | 0.00 | 78 | 1009.6 |
| 20260506213021 | 62 | 181 | 9.0 | 22.0 | 0.00 | 0.00 | 0.00 | 78 | 1009.6 |
| 20260506211533 | 62 | 233 | 7.0 | 20.0 | 0.00 | 0.00 | 0.00 | 79 | 1009.5 |
| 20260506210031 | 62 | 338 | 6.0 | 25.0 | 0.00 | 0.00 | 0.00 | 78 | 1009.9 |
| 20260506204515 | 63 | 131 | 10.0 | 20.0 | 0.00 | 0.00 | 0.00 | 77 | 1009.9 |
| 20260506203021 | 63 | 186 | 7.0 | 23.0 | 0.00 | 0.00 | 0.00 | 76 | 1010.4 |
| 20260506201535 | 63 | 216 | 5.0 | 14.0 | 0.00 | 0.00 | 0.00 | 76 | 1010.4 |
| 20260506200026 | 63 | 210 | 8.0 | 20.0 | 0.00 | 0.00 | 0.00 | 75 | 1010.5 |
| 20260506194512 | 63 | 248 | 6.0 | 24.0 | 0.00 | 0.00 | 0.00 | 75 | 1010.5 |
| 20260506193023 | 64 | 136 | 7.0 | 26.0 | 0.00 | 0.00 | 0.00 | 75 | 1010.5 |
| 20260506191503 | 64 | 146 | 7.0 | 25.0 | 0.00 | 0.00 | 0.00 | 74 | 1010.8 |
| 20260506190006 | 64 | 217 | 8.0 | 22.0 | 0.00 | 0.00 | 0.00 | 74 | 1011.0 |
| 20260506184517 | 65 | 233 | 10.0 | 25.0 | 0.00 | 0.00 | 0.00 | 72 | 1011.4 |
| 20260506183016 | 66 | 252 | 4.0 | 31.0 | 0.00 | 0.00 | 0.00 | 71 | 1011.6 |
| 20260506181519 | 67 | 206 | 9.0 | 23.0 | 0.00 | 0.00 | 0.00 | 69 | 1012.0 |
| 20260506180005 | 66 | 146 | 8.0 | 25.0 | 0.00 | 0.00 | 0.00 | 72 | 1012.0 |
| 20260506174521 | 65 | 236 | 8.0 | 21.0 | 0.00 | 0.00 | 0.00 | 73 | 1011.6 |
| 20260506173014 | 65 | 143 | 8.0 | 18.0 | 0.00 | 0.00 | 0.00 | 74 | 1012.2 |
| 20260506171530 | 65 | 198 | 9.0 | 25.0 | 0.00 | 0.00 | 0.00 | 73 | 1012.2 |
| 20260506170020 | 65 | 193 | 9.0 | 26.0 | 0.00 | 0.00 | 0.00 | 72 | 1012.6 |
| 20260506164504 | 67 | 236 | 6.0 | 21.0 | 0.00 | 0.00 | 0.00 | 71 | 1012.8 |
| 20260506163010 | 67 | 300 | 8.0 | 25.0 | 0.00 | 0.00 | 0.00 | 69 | 1012.7 |
| 20260506161513 | 67 | 257 | 9.0 | 21.0 | 0.00 | 0.00 | 0.00 | 69 | 1012.9 |
| 20260506160018 | 67 | 279 | 10.0 | 31.0 | 0.00 | 0.00 | 0.00 | 70 | 1013.0 |
| 20260506154524 | 66 | 291 | 11.0 | 29.0 | 0.00 | 0.00 | 0.00 | 72 | 1013.1 |
| 20260506153008 | 65 | 240 | 11.0 | 24.0 | 0.00 | 0.00 | 0.00 | 73 | 1013.1 |
| 20260506151511 | 65 | 214 | 8.0 | 26.0 | 0.00 | 0.00 | 0.00 | 72 | 1013.1 |
| 20260506150015 | 66 | 82 | 8.0 | 19.0 | 0.00 | 0.00 | 0.00 | 71 | 1013.2 |
| 20260506144524 | 65 | 243 | 10.0 | 23.0 | 0.00 | 0.00 | 0.00 | 72 | 1013.3 |
| 20260506143024 | 65 | 231 | 10.0 | 21.0 | 0.00 | 0.00 | 0.00 | 72 | 1013.5 |
| 20260506141508 | 65 | 212 | 7.0 | 23.0 | 0.00 | 0.00 | 0.00 | 74 | 1013.7 |
| 20260506140018 | 64 | 258 | 8.0 | 27.0 | 0.00 | 0.00 | 0.00 | 75 | 1013.7 |
| 20260506134520 | 64 | 339 | 8.0 | 23.0 | 0.00 | 0.00 | 0.00 | 75 | 1013.5 |
| 20260506133028 | 64 | 220 | 11.0 | 23.0 | 0.00 | 0.00 | 0.00 | 75 | 1013.2 |
| 20260506131524 | 63 | 93 | 9.0 | 25.0 | 0.00 | 0.00 | 0.00 | 77 | 1013.2 |
| 20260506130009 | 63 | 210 | 6.0 | 21.0 | 0.00 | 0.00 | 0.00 | 78 | 1013.3 |
| 20260506124516 | 62 | 241 | 6.0 | 19.0 | 0.00 | 0.00 | 0.00 | 79 | 1013.2 |
| 20260506123018 | 61 | 262 | 6.0 | 18.0 | 0.00 | 0.00 | 0.00 | 81 | 1013.5 |
| 20260506121521 | 60 | 233 | 9.0 | 23.0 | 0.00 | 0.00 | 0.00 | 82 | 1013.6 |
| 20260506120026 | 61 | 233 | 9.0 | 20.0 | 0.00 | 0.00 | 0.00 | 81 | 1013.7 |
| 20260506114536 | 61 | 316 | 7.0 | 18.0 | 0.00 | 0.00 | 0.00 | 81 | 1013.7 |
| 20260506113020 | 60 | 226 | 5.0 | 17.0 | 0.00 | 0.00 | 0.00 | 82 | 1013.6 |
| 20260506111521 | 59 | 220 | 5.0 | 21.0 | 0.00 | 0.00 | 0.00 | 84 | 1013.7 |